Tucson, AZ

3:10 PM MST on September 21, 2019 (GMT -0700)
Tucson International

Weather History for KTUS - July, 2019

Change the Weather History Date:

Tuesday, July 30, 2019

  Actual Average Record
Temperature  
Mean Temperature 89 °F 86 °F  
Max Temperature 99 °F 98 °F 109 °F (1957)
Min Temperature 79 °F 74 °F 64 °F (1919)
Degree Days  
Heating Degree Days 0 0  
Month to date heating degree days 0 0  
Since 1 June heating degree days 0 0  
Since 1 July heating degree days 0 0  
Cooling Degree Days 24 21  
Month to date cooling degree days 774 665  
Year to date cooling degree days 1759 1761  
Since 1 June cooling degree days 1387 1259  
Growing Degree Days 39 (Base 50)    
Moisture  
Dew Point 61 °F    
Average Humidity 44    
Maximum Humidity 64    
Minimum Humidity 19    
Precipitation  
Precipitation T in 0.10 in 1.08 in (1964)
Month to date precipitation 0.70 2.15  
Year to date precipitation 5.73 5.42  
Sea Level Pressure  
Sea Level Pressure 29.86 in    
Wind  
Wind Speed 10 mph (SSE)    
Max Wind Speed 28 mph    
Max Gust Speed 36 mph    
Visibility 10 miles    
Events      
T = Trace of Precipitation, MM = Missing Value Source: NWS Daily Summary

Daily Weather History Graph

Daily Weather History Graph

Search for Another Location

Airport or City:

Astronomy

Jul. 30, 2019 Rise Set
Actual Time 5:37 AM MST 7:22 PM MST
Civil Twilight 5:10 AM MST 7:49 PM MST
Nautical Twilight 4:38 AM MST 8:21 PM MST
Astronomical Twilight 4:04 AM MST 8:55 PM MST
Moon 3:53 AM MST (7/30) 6:26 PM MST (7/30)
Length of Visible Light 14h 38m
Length of Day
13h 45m
Waning Crescent, 3% of the Moon is Illuminated
Jul 30
Waning Crescent
Jul 31
New
Aug 7
First Quarter
Aug 15
Full
Aug 23
Last Quarter

Hourly Weather History & Observations

Time (MST) Temp. Heat Index Dew Point Humidity Pressure Visibility Wind Dir Wind Speed Gust Speed Precip Events Conditions
12:53 AM 82.0 °F 82.4 °F 60.1 °F 47% 29.85 in 10.0 mi SE 17.3 mph - N/A   Clear
1:53 AM 84.0 °F 84.0 °F 60.1 °F 44% 29.85 in 10.0 mi SE 27.6 mph 32.2 mph N/A   Clear
2:53 AM 82.0 °F 82.7 °F 61.0 °F 49% 29.84 in 10.0 mi SSE 10.4 mph - 0.00 in   Mostly Cloudy
3:53 AM 81.0 °F 81.6 °F 60.1 °F 49% 29.82 in 10.0 mi SSE 9.2 mph - N/A   Mostly Cloudy
4:53 AM 81.0 °F 81.7 °F 61.0 °F 50% 29.82 in 10.0 mi NE 4.6 mph - N/A   Clear
5:53 AM 80.1 °F 81.1 °F 61.0 °F 52% 29.88 in 10.0 mi East 5.8 mph - N/A   Clear
6:53 AM 80.1 °F 81.2 °F 62.1 °F 54% 29.90 in 10.0 mi South 4.6 mph - N/A   Clear
7:53 AM 82.9 °F 83.7 °F 62.1 °F 49% 29.91 in 10.0 mi South 4.6 mph - N/A   Clear
8:53 AM 88.0 °F 87.9 °F 61.0 °F 40% 29.89 in 10.0 mi ESE 3.5 mph - N/A   Clear
9:53 AM 90.0 °F 88.6 °F 57.0 °F 33% 29.89 in 10.0 mi Calm Calm - N/A   Clear
10:53 AM 93.9 °F 92.2 °F 55.9 °F 28% 29.88 in 10.0 mi Variable 3.5 mph - N/A   Clear
11:53 AM 96.1 °F 94.5 °F 55.9 °F 26% 29.86 in 10.0 mi NNE 8.1 mph - N/A   Clear
12:53 PM 96.1 °F 94.8 °F 57.0 °F 27% 29.83 in 10.0 mi ESE 9.2 mph - N/A   Clear
1:53 PM 99.0 °F 98.1 °F 57.9 °F 25% 29.79 in 10.0 mi NNE 10.4 mph - N/A   Clear
2:53 PM 97.0 °F 95.7 °F 57.0 °F 26% 29.77 in 10.0 mi Calm Calm - N/A   Clear
3:53 PM 91.0 °F 90.2 °F 59.0 °F 34% 29.81 in 10.0 mi South 26.5 mph 36.8 mph N/A   Scattered Clouds
4:09 PM 86.0 °F 87.3 °F 64.0 °F 48% 29.96 in 10.0 mi SSW 23.0 mph 34.5 mph N/A   Mostly Cloudy
4:53 PM 82.9 °F 84.4 °F 64.0 °F 53% 29.83 in 10.0 mi SW 18.4 mph 34.5 mph N/A   Partly Cloudy
5:53 PM 82.9 °F 84.0 °F 63.0 °F 51% 29.85 in 10.0 mi SSW 10.4 mph - N/A   Partly Cloudy
6:53 PM 80.1 °F 82.1 °F 66.0 °F 62% 29.86 in 10.0 mi ESE 12.7 mph - N/A   Clear
7:53 PM 81.0 °F 82.2 °F 63.0 °F 54% 29.88 in 10.0 mi SSE 12.7 mph - N/A   Clear
8:53 PM 80.1 °F 82.3 °F 66.9 °F 64% 29.88 in 10.0 mi South 11.5 mph - 0.00 in   Partly Cloudy
9:53 PM 80.1 °F 81.9 °F 64.9 °F 60% 29.90 in 10.0 mi SSW 8.1 mph - N/A   Scattered Clouds
10:53 PM 80.1 °F 81.7 °F 64.0 °F 58% 29.91 in 10.0 mi SSW 4.6 mph - N/A   Partly Cloudy
11:53 PM 81.0 °F 82.5 °F 64.0 °F 56% 29.91 in 10.0 mi North 6.9 mph - N/A   Clear